[[{"header":{"parameterUnit":"m.s-1","parameterCategory":1,"la1":30.2992,"la2":30.254,"lo1":-89.0895,"lo2":-89.0443,"dy":0.0025,"dx":0.0025,"nx":19,"ny":19,"refTime":"2026-04-01T21:00:00:Z","depth":0,"parameterNumber":2,"parameterNumberName":"U-component_of_WINDS"},"data":[0,0,0,-3.3043,-3.3043,-3.3033,-3.3033,-3.3019,-3.3019,0,0,0,0,0,0,0,0,0,0,0,-3.3045,-3.3044,-3.3043,-3.3043,-3.3033,-3.3033,-3.3019,-3.3019,0,0,0,0,0,0,0,0,0,0,0,-3.3045,-3.3044,-3.3044,-3.3043,-3.3033,-3.3033,-3.3019,-3.3027,0,0,0,0,0,0,0,0,0,0,-3.3036,-3.3037,-3.3045,-3.3044,-3.3043,-3.3033,-3.3033,-3.3027,-3.3026,-3.3022,0,-3.3019,0,-3.3019,-3.3018,-3.3018,0,0,0,-3.3044,-3.3037,-3.3036,-3.3044,-3.3043,-3.3033,-3.3038,-3.3027,-3.3026,-3.3021,-3.3018,-3.3018,-3.3018,-3.3018,-3.3018,-3.2993,-3.2993,0,0,-3.3044,-3.3042,-3.3037,-3.3035,-3.3037,-3.3038,-3.3037,-3.3026,-3.3023,-3.3018,-3.3018,-3.3018,-3.3018,-3.3017,-3.2993,-3.2993,0,0,0,-3.3045,-3.3042,-3.3041,-3.3036,-3.3034,-3.3038,-3.3037,-3.3023,-3.3023,-3.3018,-3.3018,-3.3017,-3.3017,-3.2993,-3.2993,-3.2984,0,0,0,-3.3045,-3.3043,-3.3042,-3.304,-3.3035,-3.3029,-3.3034,-3.3024,-3.3023,-3.3018,-3.3017,-3.3017,-3.2993,-3.2993,-3.2984,-3.2979,0,0,0,-3.3046,-3.3043,-3.3041,-3.304,-3.3036,-3.3029,-3.3028,-3.3024,-3.3023,-3.3018,-3.3017,-3.2994,-3.2993,-3.2985,-3.298,-3.2972,0,0,0,-3.3045,-3.3032,-3.3041,-3.3027,-3.3036,-3.3024,-3.3028,-3.3019,-3.3013,-3.3017,-3.2993,-3.2993,-3.2985,-3.2981,-3.2973,-3.2965,-3.2961,0,0,-3.3028,-3.303,-3.3022,-3.303,-3.3015,-3.3025,-3.3009,-3.3006,-3.3007,-3.2998,-3.2997,-3.2984,-3.298,-3.2972,-3.2944,-3.2941,0,0,0,-3.3016,-3.301,-3.3007,-3.3002,-3.2999,-3.2997,-3.2996,-3.2995,-3.2988,-3.3002,-3.2979,-3.2977,-3.2973,-3.2969,-3.2966,-3.2963,-3.2991,-3.2991,-3.2991,-3.2988,-3.2991,-3.2979,-3.2981,-3.2976,-3.2976,-3.2972,-3.297,-3.2974,-3.2969,-3.2966,-3.2949,-3.2944,-3.2943,-3.2939,-3.2963,-3.2963,-3.2962,-3.2962,-3.2963,-3.2955,-3.2962,-3.2952,-3.2956,-3.2947,-3.2947,-3.2951,-3.2943,-3.2951,-3.2947,-3.2955,-3.294,-3.2936,-3.2962,-3.2962,-3.2962,-3.2962,-3.2962,-3.2945,-3.2941,-3.2941,-3.2935,-3.293,-3.2932,-3.2925,-3.2929,-3.2932,-3.2928,-3.2925,-3.2926,-3.2926,-3.2927,-3.2927,-3.2927,-3.2927,-3.2927,-3.2926,-3.2925,-3.2925,-3.2919,-3.2916,-3.2914,-3.2912,-3.2913,-3.291,-3.2909,-3.2912,-3.2912,-3.2916,-3.2938,-3.2943,-3.2926,-3.2926,-3.2926,-3.2926,-3.2926,-3.2898,-3.2905,-3.2895,-3.2893,-3.2891,-3.2886,-3.2891,-3.2886,-3.2885,-3.2881,-3.2887,-3.2903,-3.2905,-3.2907,-3.2911,-3.2887,-3.2887,-3.2887,-3.2887,-3.2882,-3.2884,-3.2875,-3.2872,-3.2869,-3.2873,-3.2862,-3.2863,-3.2865,-3.2865,-3.2869,-3.2875,-3.2877,-3.2878,-3.2881,-3.2885,-3.2854,-3.2854,-3.2854,-3.2865,-3.2867,-3.2857,-3.286,-3.2859,-3.2858,-3.2848,-3.2844,-3.2848,-3.2853,-3.2865,-3.2866,-3.2876,-3.2879,-3.2883,-3.2887,-3.2894,0,0]},{"header":{"parameterUnit":"m.s-1","parameterCategory":1,"la1":30.2992,"la2":30.254,"lo1":-89.0895,"lo2":-89.0443,"dy":0.0025,"dx":0.0025,"nx":19,"ny":19,"refTime":"2026-04-01T21:00:00:Z","depth":0,"parameterNumber":3,"parameterNumberName":"V-component_of_WINDS"},"data":[0,0,0,4.5986,4.5985,4.5947,4.5947,4.5906,4.5906,0,0,0,0,0,0,0,0,0,0,0,4.6003,4.6003,4.5986,4.5985,4.5947,4.5947,4.5906,4.5906,0,0,0,0,0,0,0,0,0,0,0,4.6003,4.6003,4.6003,4.5985,4.5947,4.5947,4.5906,4.5931,0,0,0,0,0,0,0,0,0,0,4.5967,4.5989,4.6003,4.6003,4.5985,4.5947,4.5947,4.5933,4.593,4.5927,0,4.5928,0,4.5917,4.5904,4.5904,0,0,0,4.5979,4.5991,4.5976,4.6003,4.5985,4.5947,4.5963,4.5931,4.5928,4.5924,4.5927,4.5926,4.5916,4.5903,4.5903,4.5918,4.5919,0,0,4.5981,4.5998,4.5979,4.5975,4.5983,4.5964,4.5962,4.5929,4.5932,4.5927,4.5924,4.5916,4.5903,4.5903,4.5918,4.5919,0,0,0,4.5992,4.6,4.5986,4.5977,4.597,4.5963,4.596,4.5934,4.5928,4.5924,4.5915,4.5903,4.5903,4.5918,4.5918,4.5956,0,0,0,4.5992,4.6006,4.5987,4.5996,4.5971,4.5951,4.5966,4.5931,4.5926,4.5915,4.5903,4.5902,4.5917,4.5918,4.5954,4.5969,0,0,0,4.6003,4.6007,4.6004,4.5997,4.5982,4.5952,4.5944,4.5929,4.5921,4.5904,4.5902,4.5917,4.5918,4.5952,4.5966,4.5983,0,0,0,4.6018,4.6031,4.6005,4.6016,4.5983,4.5976,4.5944,4.5936,4.5925,4.5903,4.5917,4.5918,4.5952,4.5965,4.5981,4.6001,4.6011,0,0,4.6043,4.6034,4.604,4.6016,4.6019,4.598,4.5989,4.5959,4.5939,4.5926,4.5926,4.5955,4.5966,4.5983,4.6055,4.6063,0,0,0,4.6053,4.6058,4.6055,4.605,4.6033,4.6021,4.599,4.5982,4.5972,4.5937,4.5963,4.5969,4.5978,4.5987,4.5994,4.6003,4.5923,4.5922,4.5922,4.6108,4.6091,4.6101,4.6081,4.6076,4.605,4.6045,4.6028,4.6003,4.6011,4.6006,4.6054,4.6065,4.6069,4.6079,4.6014,4.6014,4.6014,4.6015,4.6145,4.615,4.613,4.6133,4.6114,4.6115,4.6094,4.6079,4.6078,4.6052,4.6059,4.6035,4.6079,4.6086,4.6017,4.6017,4.6016,4.6016,4.6016,4.6179,4.618,4.6174,4.6172,4.6172,4.615,4.6154,4.6135,4.6115,4.6123,4.612,4.6119,4.6119,4.6123,4.6123,4.6123,4.6124,4.6124,4.6124,4.6218,4.6211,4.6218,4.6211,4.621,4.6207,4.6189,4.6186,4.6179,4.6165,4.6165,4.6144,4.6086,4.6074,4.6126,4.6126,4.6125,4.6125,4.6125,4.6262,4.6252,4.6263,4.6264,4.6259,4.6265,4.6244,4.6244,4.6239,4.6244,4.6224,4.6184,4.6171,4.6166,4.6156,4.6226,4.6226,4.6226,4.6226,4.6292,4.6288,4.6301,4.6305,4.6306,4.6292,4.631,4.63,4.6286,4.6284,4.6271,4.6256,4.6251,4.6241,4.6234,4.6224,4.631,4.631,4.6311,4.6321,4.6317,4.6335,4.6328,4.6325,4.6324,4.6343,4.6348,4.633,4.6314,4.6283,4.6279,4.6254,4.6246,4.6225,4.6214,4.6196,0,0]}]]